Flag for Tunisia Weather past 2 weeks in Houmt Souk (Djerba), Tunisia

Now
59 °F

Passing clouds.


Feels Like: 55 °F
Forecast: 57 / 67 °F
Wind: 20 mph from Northwest

Location: Djerba Mellita

Current Time: Mar 28, 2015 at 6:23:10 AM

Latest Report: Mar 28, 2015 at 6:00 AM


Visibility: 5 mi

Pressure: 29.92 "Hg

Humidity: 55%

Dew point: 43 °F

Location of Houmt Souk (Djerba)Location

Historic Weather in Houmt Souk (Djerba) — Graph

°F

Houmt Souk (Djerba) temperature yesterday

Maximum temperature yesterday: 66 °F (at 4:00 PM)
Minimum temperature yesterday: 52 °F (at 8:30 AM)
Average temperature yesterday: 60 °F

Past Weeks' High & Low Weather Summary

 TemperatureHumidityPressure
High81 °F (Mar 22, 2:30 PM)100% (Mar 22, 12:00 AM)30.15 "Hg (Mar 22, 12:00 AM)
Low46 °F (Mar 18, 6:00 AM)20% (Mar 22, 3:30 PM)29.36 "Hg (Mar 24, 5:30 PM)
Average62 °F71%29.88 "Hg
* Reported Mar 13 5:00 AM — Mar 28 5:30 AM, Houmt Souk (Djerba), Weather by CustomWeather, © 2015

Note: Actual official high and low records may vary slightly from our data, if they occured in-between our weather recording intervals... More about our weather records

Advertising

Houmt Souk (Djerba) weather history for previous 24 hours

 ConditionsComfort  
Time TempWeatherWind HumidityBarometerVisibility
5:30 AM
Sat, Mar 28
59 °FPassing clouds.21 mph48%29.92 "Hg5 mi
4:30 AM59 °FPassing clouds.21 mph51%29.92 "Hg5 mi
4:00 AM59 °FPassing clouds.21 mph51%29.92 "Hg5 mi
3:30 AM61 °FPassing clouds.22 mph55%29.92 "Hg5 mi
3:00 AM61 °FPassing clouds.24 mph55%29.92 "Hg5 mi
2:30 AM61 °FPassing clouds.30 mph52%29.92 "HgN/A
2:00 AM61 °FPassing clouds.18 mph59%29.92 "HgN/A
1:30 AM61 °FPassing clouds.15 mph63%29.92 "HgN/A
1:00 AM61 °FPassing clouds.15 mph59%29.92 "HgN/A
12:30 AM61 °FPassing clouds.14 mph63%29.92 "HgN/A
12:00 AM61 °FPassing clouds.10 mph68%29.95 "HgN/A
11:30 PM
Fri, Mar 27
61 °FPassing clouds.12 mph68%29.95 "HgN/A
11:00 PM63 °FPassing clouds.15 mph56%29.95 "HgN/A
10:30 PM63 °FPassing clouds.14 mph56%29.95 "HgN/A
10:00 PM63 °FPassing clouds.17 mph56%29.95 "HgN/A
9:30 PM63 °FPassing clouds.20 mph52%29.95 "HgN/A
9:00 PM63 °FPassing clouds.15 mph56%29.95 "HgN/A
8:30 PM63 °FPassing clouds.18 mph59%29.95 "HgN/A
8:00 PM63 °FPassing clouds.14 mph59%29.95 "HgN/A
7:30 PM63 °FPassing clouds.12 mph68%29.92 "HgN/A
7:00 PM63 °FPassing clouds.9 mph68%29.92 "HgN/A
6:30 PM64 °FScattered clouds.12 mph56%29.92 "HgN/A
6:00 PM64 °FScattered clouds.8 mph60%29.92 "HgN/A
5:30 PM64 °FScattered clouds.9 mph56%29.92 "HgN/A
5:00 PM66 °FScattered clouds.9 mph52%29.92 "HgN/A
4:30 PM64 °FPassing clouds.10 mph52%29.92 "HgN/A
4:00 PM66 °FPassing clouds.13 mph49%29.92 "HgN/A
3:30 PM64 °FPassing clouds.12 mph49%29.92 "Hg4 mi
3:00 PM64 °FPassing clouds.12 mph49%29.92 "Hg4 mi
2:30 PM64 °FPassing clouds.12 mph49%29.92 "Hg4 mi
2:00 PM63 °FPassing clouds.14 mph49%29.95 "Hg4 mi
1:30 PM63 °FPassing clouds.14 mph52%29.95 "Hg4 mi
1:00 PM63 °FPassing clouds.15 mph49%29.95 "Hg4 mi
12:30 PM63 °FPassing clouds.18 mph49%29.95 "Hg4 mi
12:00 PM61 °FPassing clouds.20 mph55%29.95 "Hg4 mi
11:30 AM61 °FPassing clouds.15 mph59%29.95 "Hg3 mi
11:00 AM59 °FPassing clouds.12 mph63%29.98 "Hg3 mi
10:30 AM55 °FLight rain. Scattered clouds.13 mph72%29.98 "Hg3 mi
10:00 AM55 °FLight rain. Scattered clouds.16 mph72%29.98 "Hg3 mi
9:30 AM55 °FLight rain. Scattered clouds.18 mph72%29.98 "Hg3 mi
9:00 AM52 °FLight rain. Scattered clouds.12 mph82%29.95 "Hg3 mi
8:30 AM52 °FLight rain. Scattered clouds.21 mph82%29.95 "Hg3 mi
8:00 AM54 °FLight rain. Scattered clouds.15 mph72%29.92 "Hg4 mi
7:30 AM54 °FLight rain. Scattered clouds.16 mph77%29.92 "Hg4 mi
7:00 AM54 °FLight rain. Broken clouds.18 mph72%29.92 "Hg4 mi
6:30 AM54 °FBroken clouds.20 mph77%29.89 "Hg4 mi
6:00 AM54 °FPartly cloudy.24 mph72%29.89 "Hg4 mi
Weather by CustomWeather, © 2015

See weather overviewHow to use our weather pages